Weather History for 71243 - October, 2013

Change the Weather History Date:

Sunday, October 6, 2013

  Actual Average Record
Temperature  
Mean Temperature 58 °F -  
Max Temperature 65 °F 51 °F - ()
Min Temperature 46 °F 28 °F - ()
Degree Days  
Heating Degree Days 8    
Growing Degree Days 8 (Base 50)    
Moisture  
Dew Point 34 °F    
Average Humidity 40    
Maximum Humidity 52    
Minimum Humidity 22    
Precipitation  
Precipitation 0.00 in - - ()
Sea Level Pressure  
Sea Level Pressure 29.98 in    
Wind  
Wind Speed 15 mph ()    
Max Wind Speed 23 mph    
Max Gust Speed -    
T = Trace of Precipitation, MM = Missing Value Source: Averaged Metar Reports

Daily Weather History Graph

Daily Weather History Graph

Search for Another Location

Airport or City:

Trip Planner

Search our weather history database for the weather conditions in past years. The results will help you decide how hot, cold, wet, or windy it might be!

Date:

Astronomy

Oct. 06, 2013 Rise Set
Actual Time 7:39 AM MDT 6:58 PM MDT
Civil Twilight 7:07 AM MDT 7:30 PM MDT
Nautical Twilight 6:29 AM MDT 8:07 PM MDT
Astronomical Twilight 5:52 AM MDT 8:44 PM MDT
Moon 9:41 AM MDT (10/6) 7:45 PM MDT (10/6)
Length of Visible Light 12h 23m
Length of Day
11h 19m
Waxing Crescent, 4% of the Moon is Illuminated
Oct 6
Waxing Crescent
Oct 11
First Quarter
Oct 18
Full
Oct 26
Last Quarter
Nov 3
New

Hourly Weather History & Observations

Time (MDT) Temp. Windchill Dew Point Humidity Pressure Visibility Wind Dir Wind Speed Gust Speed Precip Events Conditions
12:00 AM 56.8 °F - 35.2 °F 44% 30.04 in - West 20.7 mph - N/A   Unknown
1:00 AM 56.7 °F - 36.1 °F 46% 30.03 in - West 20.7 mph - N/A   Unknown
2:00 AM 57.0 °F - 36.3 °F 46% 30.04 in - West 15.0 mph - N/A   Unknown
3:00 AM 56.7 °F - 36.3 °F 47% 30.03 in - WSW 18.4 mph - N/A   Unknown
4:00 AM 55.9 °F - 36.1 °F 47% 30.01 in - West 19.6 mph - N/A   Unknown
5:00 AM 56.5 °F - 35.6 °F 46% 30.02 in - West 19.6 mph - N/A   Unknown
6:00 AM 56 °F - 35 °F 33% 30.03 in - West 19.6 mph - -  
6:00 AM 56.3 °F - 35.1 °F 45% 30.03 in - West 19.6 mph - N/A   Unknown
7:00 AM 55.4 °F - 35.1 °F 46% 30.04 in - West 16.1 mph - N/A   Unknown
8:00 AM 55.6 °F - 35.2 °F 46% 30.03 in - West 21.9 mph - N/A   Unknown
9:00 AM 56.1 °F - 35.8 °F 46% 30.04 in - West 19.6 mph - N/A   Unknown
10:00 AM 61.2 °F - 36.7 °F 40% 30.03 in - West 23.0 mph - N/A   Unknown
11:00 AM 61.0 °F - 36.7 °F 40% 30.02 in - West 19.6 mph - N/A   Unknown
12:00 PM 61 °F - 37 °F 28% 30.01 in - WSW 15.0 mph - -  
12:00 PM 60.8 °F - 36.7 °F 41% 30.01 in - WSW 18.4 mph - N/A   Unknown
1:00 PM 61.9 °F - 36.7 °F 39% 29.99 in - WSW 16.1 mph - N/A   Unknown
2:00 PM 63.1 °F - 34.7 °F 35% 29.95 in - West 18.4 mph - N/A   Unknown
3:00 PM 64.4 °F - 31.6 °F 29% 29.94 in - West 21.9 mph - N/A   Unknown
4:00 PM 64.9 °F - 30.6 °F 28% 29.93 in - West 16.1 mph - N/A   Unknown
5:00 PM 64.0 °F - 31.6 °F 30% 29.92 in - WSW 10.4 mph - N/A   Unknown
6:00 PM 61 °F - 32 °F 22% 29.91 in - SW 8.1 mph - -  
6:00 PM 60.8 °F - 32.2 °F 34% 29.91 in - SW 8.1 mph - N/A   Unknown
7:00 PM 55.8 °F - 32.2 °F 41% 29.92 in - SSW 9.2 mph - N/A   Unknown
8:00 PM 50.4 °F - 31.1 °F 48% 29.92 in - SSW 8.1 mph - N/A   Unknown
9:00 PM 50.5 °F - 30.9 °F 47% 29.90 in - SSE 5.8 mph - N/A   Unknown
10:00 PM 50.7 °F - 29.1 °F 43% 29.87 in - SW 6.9 mph - N/A   Unknown
11:00 PM 46.4 °F 43.5 °F 29.7 °F 52% 29.87 in - SSW 5.8 mph - N/A   Unknown